TimeEDT,TemperatureF,Dew PointF,Humidity,Sea Level PressureIn,VisibilityMPH,Wind Direction,Wind SpeedMPH,Gust SpeedMPH,PrecipitationIn,Events,Conditions,WindDirDegrees,DateUTC
12:15 AM,55.9,53.4,91,30.23,10.0,Calm,Calm,-,N/A,,Clear,0,2013-08-17 04:15:00
12:35 AM,55.9,52.9,89,30.23,10.0,Calm,Calm,-,N/A,,Clear,0,2013-08-17 04:35:00
12:55 AM,53.6,52.2,95,30.23,10.0,Calm,Calm,-,N/A,,Clear,0,2013-08-17 04:55:00
1:15 AM,53.6,52.3,95,30.23,10.0,Calm,Calm,-,N/A,,Clear,0,2013-08-17 05:15:00
1:35 AM,53.6,53.4,99,30.24,7.0,Calm,Calm,-,N/A,,Clear,0,2013-08-17 05:35:00
1:55 AM,50.2,49.8,99,30.24,10.0,Calm,Calm,-,N/A,,Clear,0,2013-08-17 05:55:00
2:15 AM,49.6,48.7,97,30.24,10.0,Calm,Calm,-,N/A,,Clear,0,2013-08-17 06:15:00
2:35 AM,49.5,49.5,100,30.24,10.0,Calm,Calm,-,N/A,,Clear,0,2013-08-17 06:35:00
2:55 AM,48.4,48.2,99,30.24,5.0,Calm,Calm,-,N/A,,Clear,0,2013-08-17 06:55:00
3:15 AM,48.4,48.2,99,30.25,7.0,Calm,Calm,-,N/A,,Clear,0,2013-08-17 07:15:00
3:35 AM,48.4,48.0,99,30.24,10.0,Calm,Calm,-,N/A,,Clear,0,2013-08-17 07:35:00
3:55 AM,48.4,47.7,97,30.25,10.0,Calm,Calm,-,N/A,,Clear,0,2013-08-17 07:55:00
4:14 AM,47.8,47.7,99,30.25,10.0,Calm,Calm,-,N/A,,Clear,0,2013-08-17 08:14:00
4:35 AM,46.0,46.0,100,30.25,1.5,Calm,Calm,-,N/A,,Mist,0,2013-08-17 08:35:00
4:55 AM,43.5,43.5,100,30.26,7.0,Calm,Calm,-,N/A,,Clear,0,2013-08-17 08:55:00
5:14 AM,43.7,43.5,99,30.25,10.0,Calm,Calm,-,N/A,,Clear,0,2013-08-17 09:14:00
5:35 AM,44.6,44.1,98,30.25,0.5,Calm,Calm,-,N/A,Fog,Fog,0,2013-08-17 09:35:00
5:54 AM,45.5,45.3,99,30.26,5.0,Calm,Calm,-,N/A,,Clear,0,2013-08-17 09:54:00
6:15 AM,44.2,44.1,99,30.26,1.5,Calm,Calm,-,N/A,,Mist,0,2013-08-17 10:15:00
6:35 AM,43.2,43.2,100,30.27,0.8,Calm,Calm,-,N/A,,Mist,0,2013-08-17 10:35:00
6:54 AM,41.9,41.9,100,30.27,0.2,Calm,Calm,-,N/A,Fog,Fog,0,2013-08-17 10:54:00
7:15 AM,43.5,43.3,99,30.28,7.0,Calm,Calm,-,N/A,,Clear,0,2013-08-17 11:15:00
7:35 AM,48.2,47.5,97,30.28,10.0,Calm,Calm,-,N/A,,Clear,0,2013-08-17 11:35:00
7:54 AM,48.4,47.5,97,30.28,10.0,Calm,Calm,-,N/A,,Clear,0,2013-08-17 11:54:00
8:15 AM,51.6,49.8,94,30.28,10.0,Calm,Calm,-,N/A,,Clear,0,2013-08-17 12:15:00
8:35 AM,53.8,50.2,88,30.28,10.0,Calm,Calm,-,N/A,,Clear,0,2013-08-17 12:35:00
8:54 AM,57.6,52.0,82,30.28,10.0,Calm,Calm,-,N/A,,Clear,0,2013-08-17 12:54:00
9:15 AM,61.5,53.4,75,30.28,10.0,Calm,Calm,-,N/A,,Clear,0,2013-08-17 13:15:00
9:35 AM,65.5,55.0,69,30.28,10.0,Calm,Calm,-,N/A,,Clear,0,2013-08-17 13:35:00
9:54 AM,68.5,54.9,62,30.28,10.0,Calm,Calm,-,N/A,,Clear,0,2013-08-17 13:54:00
10:15 AM,69.3,54.1,59,30.28,10.0,SW,3.5,-,N/A,,Clear,220,2013-08-17 14:15:00
10:35 AM,73.6,53.4,49,30.28,10.0,Calm,Calm,-,N/A,,Clear,0,2013-08-17 14:35:00
10:55 AM,73.8,51.4,45,30.28,10.0,SSW,5.8,-,N/A,,Clear,210,2013-08-17 14:55:00
11:15 AM,76.1,51.4,42,30.28,10.0,WSW,6.9,-,N/A,,Clear,240,2013-08-17 15:15:00
11:35 AM,76.3,49.6,39,30.29,10.0,SW,5.8,-,N/A,,Clear,230,2013-08-17 15:35:00
11:55 AM,78.4,47.8,34,30.28,10.0,SSW,3.5,-,N/A,,Clear,210,2013-08-17 15:55:00
12:15 PM,78.8,47.5,33,30.28,10.0,SSW,4.6,-,N/A,,Clear,200,2013-08-17 16:15:00
12:34 PM,78.8,46.6,32,30.27,10.0,SW,9.2,-,N/A,,Clear,220,2013-08-17 16:34:00
12:55 PM,79.9,46.8,31,30.27,10.0,West,5.8,-,N/A,,Clear,270,2013-08-17 16:55:00
1:15 PM,79.5,45.3,30,30.26,10.0,NW,3.5,-,N/A,,Clear,310,2013-08-17 17:15:00
1:34 PM,80.2,45.9,30,30.26,10.0,West,5.8,-,N/A,,Clear,260,2013-08-17 17:34:00
1:55 PM,79.3,45.5,30,30.26,10.0,SW,6.9,-,N/A,,Scattered Clouds,220,2013-08-17 17:55:00
2:15 PM,80.1,45.7,30,30.25,10.0,SW,5.8,-,N/A,,Mostly Cloudy,220,2013-08-17 18:15:00
2:34 PM,81.1,45.5,28,30.25,10.0,WSW,3.5,-,N/A,,Scattered Clouds,250,2013-08-17 18:34:00
2:55 PM,81.9,45.0,27,30.24,10.0,West,5.8,-,N/A,,Clear,270,2013-08-17 18:55:00
3:15 PM,82.2,45.1,27,30.24,10.0,SW,6.9,-,N/A,,Clear,230,2013-08-17 19:15:00
3:34 PM,81.3,45.1,28,30.23,10.0,West,9.2,-,N/A,,Clear,270,2013-08-17 19:34:00
3:55 PM,81.7,45.0,27,30.23,10.0,SW,8.1,-,N/A,,Clear,220,2013-08-17 19:55:00
4:15 PM,81.0,45.7,29,30.22,10.0,West,4.6,-,N/A,,Clear,270,2013-08-17 20:15:00
4:34 PM,81.1,45.7,29,30.22,10.0,WSW,6.9,-,N/A,,Clear,250,2013-08-17 20:34:00
4:55 PM,79.3,45.9,31,30.22,10.0,SW,3.5,-,N/A,,Clear,220,2013-08-17 20:55:00
5:15 PM,81.7,46.0,29,30.21,10.0,South,5.8,-,N/A,,Clear,190,2013-08-17 21:15:00
5:34 PM,78.8,44.8,30,30.21,10.0,SSW,3.5,-,N/A,,Clear,200,2013-08-17 21:34:00
5:55 PM,79.0,45.5,31,30.21,10.0,Calm,Calm,-,N/A,,Clear,0,2013-08-17 21:55:00
6:15 PM,79.5,46.2,31,30.21,10.0,SSE,4.6,-,N/A,,Scattered Clouds,160,2013-08-17 22:15:00
6:34 PM,81.3,45.7,28,30.21,10.0,South,6.9,-,N/A,,Mostly Cloudy,190,2013-08-17 22:34:00
6:55 PM,80.4,45.7,29,30.20,10.0,Calm,Calm,-,N/A,,Mostly Cloudy,0,2013-08-17 22:55:00
7:15 PM,78.8,47.3,33,30.21,10.0,Calm,Calm,-,N/A,,Scattered Clouds,0,2013-08-17 23:15:00
7:35 PM,76.3,46.8,35,30.20,10.0,Calm,Calm,-,N/A,,Scattered Clouds,0,2013-08-17 23:35:00
7:55 PM,73.6,50.7,45,30.20,10.0,Calm,Calm,-,N/A,,Scattered Clouds,0,2013-08-17 23:55:00
8:15 PM,73.6,49.5,43,30.20,10.0,Calm,Calm,-,N/A,,Scattered Clouds,0,2013-08-18 00:15:00
8:35 PM,72.9,52.9,49,30.20,10.0,SSW,3.5,-,N/A,,Clear,200,2013-08-18 00:35:00
8:55 PM,68.2,51.4,55,30.21,10.0,NW,8.1,-,N/A,,Scattered Clouds,310,2013-08-18 00:55:00
9:15 PM,71.4,50.2,47,30.22,10.0,NW,5.8,-,N/A,,Scattered Clouds,310,2013-08-18 01:15:00
9:35 PM,69.3,49.5,49,30.23,10.0,Calm,Calm,-,N/A,,Scattered Clouds,0,2013-08-18 01:35:00
9:55 PM,66.2,51.6,59,30.23,10.0,Calm,Calm,-,N/A,,Clear,0,2013-08-18 01:55:00
10:14 PM,63.0,50.0,63,30.23,10.0,Calm,Calm,-,N/A,,Clear,0,2013-08-18 02:14:00
10:35 PM,60.4,50.2,69,30.23,10.0,Calm,Calm,-,N/A,,Clear,0,2013-08-18 02:35:00
10:55 PM,55.9,48.7,77,30.23,10.0,Calm,Calm,-,N/A,,Clear,0,2013-08-18 02:55:00
11:14 PM,56.3,50.2,80,30.23,10.0,Calm,Calm,-,N/A,,Clear,0,2013-08-18 03:14:00
11:35 PM,55.9,50.7,83,30.23,10.0,Calm,Calm,-,N/A,,Clear,0,2013-08-18 03:35:00
11:55 PM,54.0,50.4,88,30.23,10.0,Calm,Calm,-,N/A,,Clear,0,2013-08-18 03:55:00